Weather History for Lynchburg, VA

Change the Weather History Date:

Wednesday, May 14, 2014

  Actual Average Record
Temperature  
Mean Temperature 69 °F 62 °F  
Max Temperature 76 °F 75 °F 92 °F (1956)
Min Temperature 62 °F 50 °F 33 °F (1997)
Degree Days  
Heating Degree Days 0 4  
Month to date heating degree days 28 73  
Since 1 July heating degree days 4403 4396  
Cooling Degree Days 4 2  
Month to date cooling degree days 42 17  
Year to date cooling degree days 61 35  
Growing Degree Days 18 (Base 50)    
Moisture  
Dew Point 66 °F    
Average Humidity 90    
Maximum Humidity 100    
Minimum Humidity 79    
Precipitation  
Precipitation 0.04 in 0.12 in 2.21 in (2009)
Month to date precipitation 0.35 1.60  
Year to date precipitation 15.98 14.56  
Snow  
Snow 0.00 in - - ()
Month to date snowfall 0.0  
Since 1 July snowfall 21.4  
Snow Depth 0.00 in    
Sea Level Pressure  
Sea Level Pressure 30.14 in    
Wind  
Wind Speed 5 mph (NE)    
Max Wind Speed 13 mph    
Max Gust Speed 17 mph    
Visibility 8 miles    
Events Rain , Thunderstorm    
T = Trace of Precipitation, MM = Missing Value Source: NWS Daily Summary

Daily Weather History Graph

Daily Weather History Graph

Search for Another Location

Airport:

Trip Planner

Search our weather history database for the weather conditions in past years. The results will help you decide how hot, cold, wet, or windy it might be!

Date:

Astronomy

May. 14, 2014 Rise Set
Actual Time 6:08 AM EDT 8:17 PM EDT
Civil Twilight 5:39 AM EDT 8:47 PM EDT
Nautical Twilight 5:04 AM EDT 9:22 PM EDT
Astronomical Twilight 4:25 AM EDT 10:01 PM EDT
Moon 8:22 PM EDT (5/14) 6:05 AM EDT (5/14)
Length of Visible Light 15h 07m
Length of Day
14h 09m
Full, 100% of the Moon is Illuminated
May 14
Full
May 14
Full
May 21
Last Quarter
May 28
New
Jun 5
First Quarter

Hourly Weather History & Observations

Time (EDT) Temp. Dew Point Humidity Pressure Visibility Wind Dir Wind Speed Gust Speed Precip Events Conditions
12:54 AM 70.0 °F 64.0 °F 81% 30.14 in 10.0 mi North 8.1 mph - N/A   Clear
1:54 AM 69.1 °F 64.0 °F 84% 30.13 in 10.0 mi North 4.6 mph - N/A   Scattered Clouds
2:54 AM 68.0 °F 63.0 °F 84% 30.11 in 10.0 mi NNE 5.8 mph - N/A   Clear
3:54 AM 64.9 °F 63.0 °F 93% 30.11 in 10.0 mi Calm Calm - N/A   Clear
4:54 AM 62.6 °F 62.6 °F 100% 30.15 in 10.0 mi Calm Calm - N/A   Clear
5:54 AM 63.0 °F 62.1 °F 97% 30.13 in 10.0 mi Calm Calm - N/A   Clear
6:54 AM 66.0 °F 64.0 °F 93% 30.15 in 10.0 mi Calm Calm - N/A   Clear
7:44 AM 66.2 °F 64.4 °F 94% 30.19 in 10.0 mi ENE 8.1 mph - N/A   Mostly Cloudy
7:54 AM 66.9 °F 64.9 °F 93% 30.17 in 9.0 mi NE 8.1 mph - N/A   Mostly Cloudy
8:23 AM 66.2 °F 64.4 °F 94% 30.20 in 7.0 mi NE 9.2 mph - N/A   Overcast
8:54 AM 66.9 °F 64.9 °F 93% 30.17 in 6.0 mi NE 6.9 mph - N/A   Overcast
9:54 AM 66.9 °F 66.0 °F 97% 30.17 in 6.0 mi ENE 8.1 mph - N/A   Overcast
10:54 AM 68.0 °F 66.2 °F 94% 30.20 in 8.0 mi NE 9.2 mph - N/A   Overcast
11:54 AM 69.1 °F 66.0 °F 90% 30.19 in 9.0 mi East 5.8 mph - N/A   Overcast
12:54 PM 70.0 °F 66.0 °F 87% 30.18 in 9.0 mi ENE 4.6 mph - N/A   Overcast
1:30 PM 71.6 °F 66.2 °F 83% 30.19 in 9.0 mi ENE 4.6 mph - N/A   Overcast
1:54 PM 72.0 °F 66.0 °F 81% 30.16 in 9.0 mi Calm Calm - N/A   Overcast
2:38 PM 75.2 °F 68.0 °F 78% 30.16 in 10.0 mi NNE 9.2 mph - N/A   Scattered Clouds
2:54 PM 73.9 °F 66.9 °F 79% 30.12 in 10.0 mi East 6.9 mph - N/A   Partly Cloudy
3:09 PM 73.4 °F 66.2 °F 78% 30.16 in 10.0 mi ENE 10.4 mph - N/A   Mostly Cloudy
3:32 PM 73.4 °F 66.2 °F 78% 30.15 in 10.0 mi ENE 10.4 mph - N/A   Partly Cloudy
3:49 PM 73.4 °F 66.2 °F 78% 30.14 in 7.0 mi NE 8.1 mph - 0.00 in Rain Light Rain
3:54 PM 72.0 °F 68.0 °F 87% 30.12 in 6.0 mi ENE 4.6 mph - 0.01 in Rain Light Rain
4:03 PM 71.6 °F 68.0 °F 88% 30.14 in 6.0 mi Calm Calm - N/A Rain Light Rain
4:10 PM 71.6 °F 68.0 °F 88% 30.13 in 4.0 mi ENE 3.5 mph - 0.01 in Rain , Thunderstorm Light Thunderstorms and Rain
4:34 PM 69.8 °F 68.0 °F 94% 30.13 in 6.0 mi NE 10.4 mph - 0.03 in Rain Light Rain
4:54 PM 71.1 °F 69.1 °F 93% 30.10 in 6.0 mi ENE 9.2 mph - 0.03 in   Scattered Clouds
5:03 PM 71.6 °F 68.0 °F 88% 30.12 in 6.0 mi NE 11.5 mph 17.3 mph N/A   Scattered Clouds
5:12 PM 69.8 °F 66.2 °F 88% 30.13 in 6.0 mi ENE 6.9 mph - N/A   Mostly Cloudy
5:54 PM 72.0 °F 68.0 °F 87% 30.10 in 7.0 mi ENE 8.1 mph - N/A   Overcast
6:34 PM 71.6 °F 66.2 °F 83% 30.11 in 8.0 mi NE 8.1 mph - N/A   Scattered Clouds
6:54 PM 71.1 °F 66.9 °F 87% 30.08 in 8.0 mi NE 8.1 mph - N/A   Partly Cloudy
7:54 PM 69.1 °F 66.0 °F 90% 30.09 in 8.0 mi NE 8.1 mph - N/A   Partly Cloudy
8:23 PM 68.0 °F 66.2 °F 94% 30.11 in 7.0 mi NE 6.9 mph - N/A   Mostly Cloudy
8:54 PM 68.0 °F 66.0 °F 93% 30.10 in 8.0 mi NE 5.8 mph - N/A   Overcast
9:54 PM 68.0 °F 66.0 °F 93% 30.12 in 7.0 mi NE 5.8 mph - N/A   Overcast
10:54 PM 66.9 °F 66.0 °F 97% 30.12 in 6.0 mi NE 6.9 mph - N/A   Overcast
11:54 PM 68.0 °F 66.0 °F 93% 30.11 in 5.0 mi Variable 3.5 mph - N/A   Overcast